| time (UTC) | temp F | wind direction | speed MPH | gust MPH | rain 1hr in | rain 24hr in | rain mn in | humidity % | barometer mb |
| 20260905193615 | 107 | 120 | 0.0 | 0.0 | 0.00 | 0.00 | 0.00 | ||
| 20260905174019 | 103 | 120 | 0.0 | 0.0 | 0.00 | 0.00 | 0.00 | ||
| 20260905173015 | 103 | 120 | 0.0 | 0.0 | 0.00 | 0.00 | 0.00 | ||
| 20260905172008 | 102 | 120 | 0.0 | 0.0 | 0.00 | 0.00 | 0.00 | ||
| 20260905170459 | 102 | 120 | 0.0 | 0.0 | 0.00 | 0.00 | 0.00 | ||
| 20260905165958 | 101 | 120 | 0.0 | 0.0 | 0.00 | 0.00 | 0.00 | ||
| 20260905164953 | 100 | 120 | 0.0 | 0.0 | 0.00 | 0.00 | 0.00 | ||
| 20260905164452 | 100 | 120 | 0.0 | 0.0 | 0.00 | 0.00 | 0.00 | ||
| 20260905163951 | 98 | 120 | 0.0 | 0.0 | 0.00 | 0.00 | 0.00 | ||
| 20260905162441 | 97 | 120 | 0.0 | 0.0 | 0.00 | 0.00 | 0.00 | ||
| 20260905153415 | 93 | 120 | 0.0 | 0.0 | 0.00 | 0.00 | 0.00 | ||
| 20260905152415 | 92 | 120 | 0.0 | 0.0 | 0.00 | 0.00 | 0.00 | ||
| 20260905151909 | 91 | 120 | 0.0 | 0.0 | 0.00 | 0.00 | 0.00 | ||
| 20260905150908 | 90 | 120 | 0.0 | 0.0 | 0.00 | 0.00 | 0.00 | ||
| 20260905150403 | 90 | 120 | 0.0 | 0.0 | 0.00 | 0.00 | 0.00 | ||
| 20260905141845 | 87 | 120 | 0.0 | 0.0 | 0.00 | 0.00 | 0.00 | ||
| 20260905134829 | 85 | 120 | 0.0 | 0.0 | 0.00 | 0.00 | 0.00 | ||
| 20260905134329 | 85 | 120 | 0.0 | 0.0 | 0.00 | 0.00 | 0.00 | ||
| 20260905125812 | 78 | 120 | 0.0 | 0.0 | 0.00 | 0.00 | 0.00 | ||
| 20260905114740 | 71 | 120 | 0.0 | 0.0 | 0.00 | 0.00 | 0.00 | ||
| 20260905111226 | 71 | 120 | 0.0 | 0.0 | 0.00 | 0.00 | 0.00 | ||
| 20260905110725 | 71 | 120 | 0.0 | 0.0 | 0.00 | 0.00 | 0.00 | ||
| 20260905105720 | 71 | 120 | 0.0 | 0.0 | 0.00 | 0.00 | 0.00 | ||
| 20260905102708 | 72 | 120 | 0.0 | 0.0 | 0.00 | 0.00 | 0.00 | ||
| 20260905101706 | 72 | 120 | 0.0 | 0.0 | 0.00 | 0.00 | 0.00 | ||
| 20260905100657 | 72 | 120 | 0.0 | 0.0 | 0.00 | 0.00 | 0.00 | ||
| 20260905100151 | 72 | 120 | 0.0 | 0.0 | 0.00 | 0.00 | 0.00 | ||
| 20260905093644 | 73 | 120 | 0.0 | 0.0 | 0.00 | 0.00 | 0.00 | ||
| 20260905092638 | 73 | 120 | 0.0 | 0.0 | 0.00 | 0.00 | 0.00 | ||
| 20260905092139 | 73 | 120 | 0.0 | 0.0 | 0.00 | 0.00 | 0.00 | ||
| 20260905052518 | 77 | 120 | 0.0 | 0.0 | 0.00 | 0.00 | 0.00 | ||
| 20260905051455 | 77 | 120 | 0.0 | 0.0 | 0.00 | 0.00 | 0.00 | ||
| 20260905002257 | 87 | 120 | 0.0 | 0.0 | 0.00 | 0.00 | 0.00 | ||
| 20260905000750 | 87 | 120 | 0.0 | 0.0 | 0.00 | 0.00 | 0.00 | ||
| 20260905000249 | 87 | 120 | 0.0 | 0.0 | 0.00 | 0.00 | 0.00 | ||
| 20260904235243 | 88 | 120 | 0.0 | 0.0 | 0.00 | 0.00 | 0.00 | ||
| 20260904235019 | 88 | 120 | 0.0 | 0.0 | 0.00 | 0.00 | 0.00 | ||
| 20260904234742 | 88 | 120 | 0.0 | 0.0 | 0.00 | 0.00 | 0.00 | ||
| 20260904234236 | 88 | 120 | 0.0 | 0.0 | 0.00 | 0.00 | 0.00 | ||
| 20260904224715 | 96 | 170 | 2.0 | 3.0 | 0.00 | 0.00 | 0.00 | ||
| 20260904223706 | 95 | 96 | 0.0 | 0.0 | 0.00 | 0.00 | 0.00 | ||
| 20260904222918 | 97 | 105 | 1.0 | 3.0 | 0.00 | 0.00 | 0.00 | ||
| 20260904222658 | 97 | 105 | 1.0 | 3.0 | 0.00 | 0.00 | 0.00 | ||
| 20260904222157 | 97 | 30 | 1.0 | 0.0 | 0.00 | 0.00 | 0.00 | ||
| 20260904214845 | 98 | 141 | 0.0 | 0.0 | 0.00 | 0.00 | 0.00 | ||
| 20260904214637 | 98 | 141 | 0.0 | 0.0 | 0.00 | 0.00 | 0.00 | ||
| 20260904213629 | 99 | 141 | 0.0 | 0.0 | 0.00 | 0.00 | 0.00 |